#Datum;Uhrzeit;WR;Pac;DaySum;Status;WR;Pac;DaySum;Status;Pdc1;Udc;Temp;WR;Pac;DaySum;Status;Pdc1;Udc;Temp;WR;Pac;DaySum;Status;Pdc1;Udc;Temp;WR;Pac;DaySum;Status;Pdc1;Pdc2;Udc1;Udc2;Temp;WR;Pac;DaySum;Status;Pdc1;Pdc2;Udc1;Udc2;Temp;WR;Pac;DaySum;Status;Pdc1;Udc;Temp;WR;Pac;DaySum;Status;Pdc1;Udc;Temp;WR;Pac;DaySum;Status;Pdc1;Udc;Temp
30.11.20;23:55:00;1;356;23463;0;2;0;11236;0;0;0;0;3;0;7234;0;0;0;0;4;0;7475;0;0;0;0;5;0;0;0;0;0;0;0;0;6;0;17671;0;0;0;0;0;0;7;0;18060;0;0;0;0;8;0;17415;0;0;0;0;9;0;8893;0;0;0;0
30.11.20;23:50:00;1;2654;23399;0;2;0;11236;0;0;0;0;3;0;7234;0;0;0;0;4;0;7475;0;0;0;0;5;0;0;0;0;0;0;0;0;6;0;17671;0;0;0;0;0;0;7;0;18060;0;0;0;0;8;0;17415;0;0;0;0;9;0;8893;0;0;0;0
30.11.20;23:45:00;1;333;23188;0;2;0;11236;0;0;0;0;3;0;7234;0;0;0;0;4;0;7475;0;0;0;0;5;0;0;0;0;0;0;0;0;6;0;17671;0;0;0;0;0;0;7;0;18060;0;0;0;0;8;0;17415;0;0;0;0;9;0;8893;0;0;0;0
30.11.20;23:40:00;1;301;23160;0;2;0;11236;0;0;0;0;3;0;7234;0;0;0;0;4;0;7475;0;0;0;0;5;0;0;0;0;0;0;0;0;6;0;17671;0;0;0;0;0;0;7;0;18060;0;0;0;0;8;0;17415;0;0;0;0;9;0;8893;0;0;0;0
30.11.20;23:35:00;1;290;23134;0;2;0;11236;0;0;0;0;3;0;7234;0;0;0;0;4;0;7475;0;0;0;0;5;0;0;0;0;0;0;0;0;6;0;17671;0;0;0;0;0;0;7;0;18060;0;0;0;0;8;0;17415;0;0;0;0;9;0;8893;0;0;0;0
30.11.20;23:30:00;1;369;23109;0;2;0;11236;0;0;0;0;3;0;7234;0;0;0;0;4;0;7475;0;0;0;0;5;0;0;0;0;0;0;0;0;6;0;17671;0;0;0;0;0;0;7;0;18060;0;0;0;0;8;0;17415;0;0;0;0;9;0;8893;0;0;0;0
30.11.20;23:25:00;1;718;23080;0;2;0;11236;0;0;0;0;3;0;7234;0;0;0;0;4;0;7475;0;0;0;0;5;0;0;0;0;0;0;0;0;6;0;17671;0;0;0;0;0;0;7;0;18060;0;0;0;0;8;0;17415;0;0;0;0;9;0;8893;0;0;0;0
30.11.20;23:20:00;1;356;23025;0;2;0;11236;0;0;0;0;3;0;7234;0;0;0;0;4;0;7475;0;0;0;0;5;0;0;0;0;0;0;0;0;6;0;17671;0;0;0;0;0;0;7;0;18060;0;0;0;0;8;0;17415;0;0;0;0;9;0;8893;0;0;0;0
30.11.20;23:15:00;1;336;22995;0;2;0;11236;0;0;0;0;3;0;7234;0;0;0;0;4;0;7475;0;0;0;0;5;0;0;0;0;0;0;0;0;6;0;17671;0;0;0;0;0;0;7;0;18060;0;0;0;0;8;0;17415;0;0;0;0;9;0;8893;0;0;0;0
30.11.20;23:10:00;1;328;22967;0;2;0;11236;0;0;0;0;3;0;7234;0;0;0;0;4;0;7475;0;0;0;0;5;0;0;0;0;0;0;0;0;6;0;17671;0;0;0;0;0;0;7;0;18060;0;0;0;0;8;0;17415;0;0;0;0;9;0;8893;0;0;0;0
30.11.20;23:05:00;1;438;22940;0;2;0;11236;0;0;0;0;3;0;7234;0;0;0;0;4;0;7475;0;0;0;0;5;0;0;0;0;0;0;0;0;6;0;17671;0;0;0;0;0;0;7;0;18060;0;0;0;0;8;0;17415;0;0;0;0;9;0;8893;0;0;0;0
30.11.20;23:00:00;1;591;22904;0;2;0;11236;0;0;0;0;3;0;7234;0;0;0;0;4;0;7475;0;0;0;0;5;0;0;0;0;0;0;0;0;6;0;17671;0;0;0;0;0;0;7;0;18060;0;0;0;0;8;0;17415;0;0;0;0;9;0;8893;0;0;0;0
30.11.20;22:55:00;1;991;22855;0;2;0;11236;0;0;0;0;3;0;7234;0;0;0;0;4;0;7475;0;0;0;0;5;0;0;0;0;0;0;0;0;6;0;17671;2;0;0;0;0;0;7;0;18060;0;0;0;0;8;0;17415;0;0;0;0;9;0;8893;0;0;0;0
30.11.20;22:50:00;1;473;22778;0;2;0;11236;0;0;0;0;3;0;7234;0;0;0;0;4;0;7475;0;0;0;0;5;0;0;0;0;0;0;0;0;6;0;17671;2;0;0;0;0;0;7;0;18060;0;0;0;0;8;0;17415;0;0;0;0;9;0;8893;0;0;0;0
30.11.20;22:45:00;1;437;22739;0;2;0;11236;0;0;0;0;3;0;7234;0;0;0;0;4;0;7475;0;0;0;0;5;0;0;0;0;0;0;0;0;6;0;17671;2;0;0;0;0;0;7;0;18060;0;0;0;0;8;0;17415;0;0;0;0;9;0;8893;0;0;0;0
30.11.20;22:40:00;1;443;22701;0;2;0;11236;0;0;0;0;3;0;7234;0;0;0;0;4;0;7475;0;0;0;0;5;0;0;0;0;0;0;0;0;6;0;17671;2;0;0;0;0;0;7;0;18060;0;0;0;0;8;0;17415;0;0;0;0;9;0;8893;0;0;0;0
30.11.20;22:35:00;1;478;22665;0;2;0;11236;0;0;0;0;3;0;7234;0;0;0;0;4;0;7475;0;0;0;0;5;0;0;0;0;0;0;0;0;6;0;17671;2;0;0;0;0;0;7;0;18060;0;0;0;0;8;0;17415;0;0;0;0;9;0;8893;0;0;0;0
30.11.20;22:30:00;1;437;22625;0;2;0;11236;0;0;0;0;3;0;7234;0;0;0;0;4;0;7475;0;0;0;0;5;0;0;0;0;0;0;0;0;6;0;17671;2;0;0;0;0;0;7;0;18060;0;0;0;0;8;0;17415;0;0;0;0;9;0;8893;0;0;0;0
30.11.20;22:25:00;1;870;22588;0;2;0;11236;0;0;0;0;3;0;7234;0;0;0;0;4;0;7475;0;0;0;0;5;0;0;0;0;0;0;0;0;6;0;17671;2;0;0;0;0;0;7;0;18060;0;0;0;0;8;0;17415;0;0;0;0;9;0;8893;0;0;0;0
30.11.20;22:20:00;1;591;22526;0;2;0;11236;0;0;0;0;3;0;7234;0;0;0;0;4;0;7475;0;0;0;0;5;0;0;0;0;0;0;0;0;6;0;17671;2;0;0;0;0;0;7;0;18060;0;0;0;0;8;0;17415;0;0;0;0;9;0;8893;0;0;0;0
30.11.20;22:15:00;1;425;22484;0;2;0;11236;0;0;0;0;3;0;7234;0;0;0;0;4;0;7475;0;0;0;0;5;0;0;0;0;0;0;0;0;6;0;17671;2;0;0;0;0;0;7;0;18060;0;0;0;0;8;0;17415;0;0;0;0;9;0;8893;0;0;0;0
30.11.20;22:10:00;1;461;22449;0;2;0;11236;0;0;0;0;3;0;7234;0;0;0;0;4;0;7475;0;0;0;0;5;0;0;0;0;0;0;0;0;6;0;17671;2;0;0;0;0;0;7;0;18060;0;0;0;0;8;0;17415;0;0;0;0;9;0;8893;0;0;0;0
30.11.20;22:05:00;1;587;22411;0;2;0;11236;0;0;0;0;3;0;7234;0;0;0;0;4;0;7475;0;0;0;0;5;0;0;0;0;0;0;0;0;6;0;17671;2;0;0;0;0;0;7;0;18060;0;0;0;0;8;0;17415;0;0;0;0;9;0;8893;0;0;0;0
30.11.20;22:00:00;1;549;22363;0;2;0;11236;0;0;0;0;3;0;7234;0;0;0;0;4;0;7475;0;0;0;0;5;0;0;0;0;0;0;0;0;6;0;17671;2;0;0;0;0;0;7;0;18060;0;0;0;0;8;0;17415;0;0;0;0;9;0;8893;0;0;0;0
30.11.20;21:55:00;1;664;22316;0;2;0;11236;0;0;0;0;3;0;7234;0;0;0;0;4;0;7475;0;0;0;0;5;0;0;0;0;0;0;0;0;6;0;17671;2;0;0;0;0;0;7;0;18060;0;0;0;0;8;0;17415;0;0;0;0;9;0;8893;0;0;0;0
30.11.20;21:50:00;1;475;22248;0;2;0;11236;0;0;0;0;3;0;7234;0;0;0;0;4;0;7475;0;0;0;0;5;0;0;0;0;0;0;0;0;6;0;17671;2;0;0;0;0;0;7;0;18060;0;0;0;0;8;0;17415;0;0;0;0;9;0;8893;0;0;0;0
30.11.20;21:45:00;1;478;22212;0;2;0;11236;0;0;0;0;3;0;7234;0;0;0;0;4;0;7475;0;0;0;0;5;0;0;0;0;0;0;0;0;6;0;17671;2;0;0;0;0;0;7;0;18060;0;0;0;0;8;0;17415;0;0;0;0;9;0;8893;0;0;0;0
30.11.20;21:40:00;1;566;22172;0;2;0;11236;0;0;0;0;3;0;7234;0;0;0;0;4;0;7475;0;0;0;0;5;0;0;0;0;0;0;0;0;6;0;17671;2;0;0;0;0;0;7;0;18060;0;0;0;0;8;0;17415;0;0;0;0;9;0;8893;0;0;0;0
30.11.20;21:35:00;1;517;22128;0;2;0;11236;0;0;0;0;3;0;7234;0;0;0;0;4;0;7475;0;0;0;0;5;0;0;0;0;0;0;0;0;6;0;17671;2;0;0;0;0;0;7;0;18060;0;0;0;0;8;0;17415;0;0;0;0;9;0;8893;0;0;0;0
30.11.20;21:30:00;1;604;22087;0;2;0;11236;0;0;0;0;3;0;7234;0;0;0;0;4;0;7475;0;0;0;0;5;0;0;0;0;0;0;0;0;6;0;17671;2;0;0;0;0;0;7;0;18060;0;0;0;0;8;0;17415;0;0;0;0;9;0;8893;0;0;0;0
30.11.20;21:25:00;1;657;22041;0;2;0;11236;0;0;0;0;3;0;7234;0;0;0;0;4;0;7475;0;0;0;0;5;0;0;0;0;0;0;0;0;6;0;17671;2;0;0;0;0;0;7;0;18060;0;0;0;0;8;0;17415;0;0;0;0;9;0;8893;0;0;0;0
30.11.20;21:20:00;1;429;21982;0;2;0;11236;0;0;0;0;3;0;7234;0;0;0;0;4;0;7475;0;0;0;0;5;0;0;0;0;0;0;0;0;6;0;17671;2;0;0;0;0;0;7;0;18060;0;0;0;0;8;0;17415;0;0;0;0;9;0;8893;0;0;0;0
30.11.20;21:15:00;1;455;21947;0;2;0;11236;0;0;0;0;3;0;7234;0;0;0;0;4;0;7475;0;0;0;0;5;0;0;0;0;0;0;0;0;6;0;17671;2;0;0;0;0;0;7;0;18060;0;0;0;0;8;0;17415;0;0;0;0;9;0;8893;0;0;0;0
30.11.20;21:10:00;1;716;21908;0;2;0;11236;0;0;0;0;3;0;7234;0;0;0;0;4;0;7475;0;0;0;0;5;0;0;0;0;0;0;0;0;6;0;17671;2;0;0;0;0;0;7;0;18060;0;0;0;0;8;0;17415;0;0;0;0;9;0;8893;0;0;0;0
30.11.20;21:05:00;1;627;21846;0;2;0;11236;0;0;0;0;3;0;7234;0;0;0;0;4;0;7475;0;0;0;0;5;0;0;0;0;0;0;0;0;6;0;17671;2;0;0;0;0;0;7;0;18060;0;0;0;0;8;0;17415;0;0;0;0;9;0;8893;0;0;0;0
30.11.20;21:00:00;1;1394;21793;0;2;0;11236;0;0;0;0;3;0;7234;0;0;0;0;4;0;7475;0;0;0;0;5;0;0;0;0;0;0;0;0;6;0;17671;2;0;0;0;0;0;7;0;18060;0;0;0;0;8;0;17415;0;0;0;0;9;0;8893;0;0;0;0
30.11.20;20:55:00;1;714;21700;0;2;0;11236;0;0;0;0;3;0;7234;0;0;0;0;4;0;7475;0;0;0;0;5;0;0;0;0;0;0;0;0;6;0;17671;2;0;0;0;0;0;7;0;18060;0;0;0;0;8;0;17415;0;0;0;0;9;0;8893;0;0;0;0
30.11.20;20:50:00;1;711;21640;0;2;0;11236;0;0;0;0;3;0;7234;0;0;0;0;4;0;7475;0;0;0;0;5;0;0;0;0;0;0;0;0;6;0;17671;2;0;0;0;0;0;7;0;18060;0;0;0;0;8;0;17415;0;0;0;0;9;0;8893;0;0;0;0
30.11.20;20:45:00;1;775;21581;0;2;0;11236;0;0;0;0;3;0;7234;0;0;0;0;4;0;7475;0;0;0;0;5;0;0;0;0;0;0;0;0;6;0;17671;2;0;0;0;0;0;7;0;18060;0;0;0;0;8;0;17415;0;0;0;0;9;0;8893;0;0;0;0
30.11.20;20:40:00;1;743;21517;0;2;0;11236;0;0;0;0;3;0;7234;0;0;0;0;4;0;7475;0;0;0;0;5;0;0;0;0;0;0;0;0;6;0;17671;2;0;0;0;0;0;7;0;18060;0;0;0;0;8;0;17415;0;0;0;0;9;0;8893;0;0;0;0
30.11.20;20:35:00;1;715;21455;0;2;0;11236;0;0;0;0;3;0;7234;0;0;0;0;4;0;7475;0;0;0;0;5;0;0;0;0;0;0;0;0;6;0;17671;2;0;0;0;0;0;7;0;18060;0;0;0;0;8;0;17415;0;0;0;0;9;0;8893;0;0;0;0
30.11.20;20:30:00;1;951;21395;0;2;0;11236;0;0;0;0;3;0;7234;0;0;0;0;4;0;7475;0;0;0;0;5;0;0;0;0;0;0;0;0;6;0;17671;2;0;0;0;0;0;7;0;18060;0;0;0;0;8;0;17415;0;0;0;0;9;0;8893;0;0;0;0
30.11.20;20:25:00;1;776;21304;0;2;0;11236;0;0;0;0;3;0;7234;0;0;0;0;4;0;7475;0;0;0;0;5;0;0;0;0;0;0;0;0;6;0;17671;2;0;0;0;0;0;7;0;18060;0;0;0;0;8;0;17415;0;0;0;0;9;0;8893;0;0;0;0
30.11.20;20:20:00;1;1321;21239;0;2;0;11236;0;0;0;0;3;0;7234;0;0;0;0;4;0;7475;0;0;0;0;5;0;0;0;0;0;0;0;0;6;0;17671;2;0;0;0;0;0;7;0;18060;0;0;0;0;8;0;17415;0;0;0;0;9;0;8893;0;0;0;0
30.11.20;20:15:00;1;2733;21137;0;2;0;11236;0;0;0;0;3;0;7234;0;0;0;0;4;0;7475;0;0;0;0;5;0;0;0;0;0;0;0;0;6;0;17671;2;0;0;0;0;0;7;0;18060;0;0;0;0;8;0;17415;0;0;0;0;9;0;8893;0;0;0;0
30.11.20;20:10:00;1;2747;20909;0;2;0;11236;0;0;0;0;3;0;7234;0;0;0;0;4;0;7475;0;0;0;0;5;0;0;0;0;0;0;0;0;6;0;17671;2;0;0;0;0;0;7;0;18060;0;0;0;0;8;0;17415;0;0;0;0;9;0;8893;0;0;0;0
30.11.20;20:05:00;1;2730;20680;0;2;0;11236;0;0;0;0;3;0;7234;0;0;0;0;4;0;7475;0;0;0;0;5;0;0;0;0;0;0;0;0;6;0;17671;2;0;0;0;0;0;7;0;18060;0;0;0;0;8;0;17415;0;0;0;0;9;0;8893;0;0;0;0
30.11.20;20:00:00;1;2138;20451;0;2;0;11236;0;0;0;0;3;0;7234;0;0;0;0;4;0;7475;0;0;0;0;5;0;0;0;0;0;0;0;0;6;0;17671;2;0;0;0;0;0;7;0;18060;0;0;0;0;8;0;17415;0;0;0;0;9;0;8893;0;0;0;0
30.11.20;19:55:00;1;795;20247;0;2;0;11236;0;0;0;0;3;0;7234;0;0;0;0;4;0;7475;0;0;0;0;5;0;0;0;0;0;0;0;0;6;0;17671;2;0;0;0;0;0;7;0;18060;0;0;0;0;8;0;17415;0;0;0;0;9;0;8893;0;0;0;0
30.11.20;19:50:00;1;669;20181;0;2;0;11236;0;0;0;0;3;0;7234;0;0;0;0;4;0;7475;0;0;0;0;5;0;0;0;0;0;0;0;0;6;0;17671;2;0;0;0;0;0;7;0;18060;0;0;0;0;8;0;17415;0;0;0;0;9;0;8893;0;0;0;0
30.11.20;19:45:00;1;714;20122;0;2;0;11236;0;0;0;0;3;0;7234;0;0;0;0;4;0;7475;0;0;0;0;5;0;0;0;0;0;0;0;0;6;0;17671;2;0;0;0;0;0;7;0;18060;0;0;0;0;8;0;17415;0;0;0;0;9;0;8893;0;0;0;0
30.11.20;19:40:00;1;708;20061;0;2;0;11236;0;0;0;0;3;0;7234;0;0;0;0;4;0;7475;0;0;0;0;5;0;0;0;0;0;0;0;0;6;0;17671;2;0;0;0;0;0;7;0;18060;0;0;0;0;8;0;17415;0;0;0;0;9;0;8893;0;0;0;0
30.11.20;19:35:00;1;729;20002;0;2;0;11236;0;0;0;0;3;0;7234;0;0;0;0;4;0;7475;0;0;0;0;5;0;0;0;0;0;0;0;0;6;0;17671;2;0;0;0;0;0;7;0;18060;0;0;0;0;8;0;17415;0;0;0;0;9;0;8893;0;0;0;0
30.11.20;19:30:00;1;871;19942;0;2;0;11236;0;0;0;0;3;0;7234;0;0;0;0;4;0;7475;0;0;0;0;5;0;0;0;0;0;0;0;0;6;0;17671;2;0;0;0;0;0;7;0;18060;0;0;0;0;8;0;17415;0;0;0;0;9;0;8893;0;0;0;0
30.11.20;19:25:00;1;1485;19838;0;2;0;11236;0;0;0;0;3;0;7234;0;0;0;0;4;0;7475;0;0;0;0;5;0;0;0;0;0;0;0;0;6;0;17671;2;0;0;0;0;0;7;0;18060;0;0;0;0;8;0;17415;0;0;0;0;9;0;8893;0;0;0;0
30.11.20;19:20:00;1;2747;19712;0;2;0;11236;0;0;0;0;3;0;7234;0;0;0;0;4;0;7475;0;0;0;0;5;0;0;0;0;0;0;0;0;6;0;17671;2;0;0;0;0;0;7;0;18060;0;0;0;0;8;0;17415;0;0;0;0;9;0;8893;0;0;0;0
30.11.20;19:15:00;1;2685;19485;0;2;0;11236;0;0;0;0;3;0;7234;0;0;0;0;4;0;7475;0;0;0;0;5;0;0;0;0;0;0;0;0;6;0;17671;2;0;0;0;0;0;7;0;18060;0;0;0;0;8;0;17415;0;0;0;0;9;0;8893;0;0;0;0
30.11.20;19:10:00;1;2612;19259;0;2;0;11236;0;0;0;0;3;0;7234;0;0;0;0;4;0;7475;0;0;0;0;5;0;0;0;0;0;0;0;0;6;0;17671;2;0;0;0;0;0;7;0;18060;0;0;0;0;8;0;17415;0;0;0;0;9;0;8893;0;0;0;0
30.11.20;19:05:00;1;1024;19040;0;2;0;11236;0;0;0;0;3;0;7234;0;0;0;0;4;0;7475;0;0;0;0;5;0;0;0;0;0;0;0;0;6;0;17671;2;0;0;0;0;0;7;0;18060;0;0;0;0;8;0;17415;0;0;0;0;9;0;8893;0;0;0;0
30.11.20;19:00:00;1;1239;18967;0;2;0;11236;0;0;0;0;3;0;7234;0;0;0;0;4;0;7475;0;0;0;0;5;0;0;0;0;0;0;0;0;6;0;17671;2;0;0;0;0;0;7;0;18060;0;0;0;0;8;0;17415;0;0;0;0;9;0;8893;0;0;0;0
30.11.20;18:55:00;1;822;18869;0;2;0;11236;0;0;0;0;3;0;7234;0;0;0;0;4;0;7475;0;0;0;0;5;0;0;0;0;0;0;0;0;6;0;17671;2;0;0;0;0;0;7;0;18060;0;0;0;0;8;0;17415;0;0;0;0;9;0;8893;0;0;0;0
30.11.20;18:50:00;1;841;18797;0;2;0;11236;0;0;0;0;3;0;7234;0;0;0;0;4;0;7475;0;0;0;0;5;0;0;0;0;0;0;0;0;6;0;17671;2;0;0;0;0;0;7;0;18060;0;0;0;0;8;0;17415;0;0;0;0;9;0;8893;0;0;0;0
30.11.20;18:45:00;1;829;18726;0;2;0;11236;0;0;0;0;3;0;7234;0;0;0;0;4;0;7475;0;0;0;0;5;0;0;0;0;0;0;0;0;6;0;17671;2;0;0;0;0;0;7;0;18060;0;0;0;0;8;0;17415;0;0;0;0;9;0;8893;0;0;0;0
30.11.20;18:40:00;1;839;18658;0;2;0;11236;0;0;0;0;3;0;7234;0;0;0;0;4;0;7475;0;0;0;0;5;0;0;0;0;0;0;0;0;6;0;17671;2;0;0;0;0;0;7;0;18060;0;0;0;0;8;0;17415;0;0;0;0;9;0;8893;0;0;0;0
30.11.20;18:35:00;1;839;18589;0;2;0;11236;0;0;0;0;3;0;7234;0;0;0;0;4;0;7475;0;0;0;0;5;0;0;0;0;0;0;0;0;6;0;17671;2;0;0;0;0;0;7;0;18060;0;0;0;0;8;0;17415;0;0;0;0;9;0;8893;0;0;0;0
30.11.20;18:30:00;1;1047;18518;0;2;0;11236;0;0;0;0;3;0;7234;0;0;0;0;4;0;7475;0;0;0;0;5;0;0;0;0;0;0;0;0;6;0;17671;2;0;0;0;0;0;7;0;18060;0;0;0;0;8;0;17415;0;0;0;0;9;0;8893;0;0;0;0
30.11.20;18:25:00;1;1032;18439;0;2;0;11236;0;0;0;0;3;0;7234;0;0;0;0;4;0;7475;0;0;0;0;5;0;0;0;0;0;0;0;0;6;0;17671;2;0;0;0;0;0;7;0;18060;0;0;0;0;8;0;17415;0;0;0;0;9;0;8893;0;0;0;0
30.11.20;18:20:00;1;984;18344;0;2;0;11236;0;0;0;0;3;0;7234;0;0;0;0;4;0;7475;0;0;0;0;5;0;0;0;0;0;0;0;0;6;0;17671;2;0;0;0;0;0;7;0;18060;0;0;0;0;8;0;17415;0;0;0;0;9;0;8893;0;0;0;0
30.11.20;18:15:00;1;868;18261;0;2;0;11236;0;0;0;0;3;0;7234;0;0;0;0;4;0;7475;0;0;0;0;5;0;0;0;0;0;0;0;0;6;0;17671;2;0;0;0;0;0;7;0;18060;0;0;0;0;8;0;17415;0;0;0;0;9;0;8893;0;0;0;0
30.11.20;18:10:00;1;848;18187;0;2;0;11236;0;0;0;0;3;0;7234;0;0;0;0;4;0;7475;0;0;0;0;5;0;0;0;0;0;0;0;0;6;0;17671;2;0;0;0;0;0;7;0;18060;0;0;0;0;8;0;17415;0;0;0;0;9;0;8893;0;0;0;0
30.11.20;18:05:00;1;816;18117;0;2;0;11236;0;0;0;0;3;0;7234;0;0;0;0;4;0;7475;0;0;0;0;5;0;0;0;0;0;0;0;0;6;0;17671;2;0;0;0;0;0;7;0;18060;0;0;0;0;8;0;17415;0;0;0;0;9;0;8893;0;0;0;0
30.11.20;18:00:00;1;803;18049;0;2;0;11236;0;0;0;0;3;0;7234;0;0;0;0;4;0;7475;0;0;0;0;5;0;0;0;0;0;0;0;0;6;0;17671;2;0;0;0;0;0;7;0;18060;0;0;0;0;8;0;17415;0;0;0;0;9;0;8893;0;0;0;0
30.11.20;17:55:00;1;1635;17982;0;2;0;11236;0;0;0;0;3;0;7234;0;0;0;0;4;0;7475;0;0;0;0;5;0;0;0;0;0;0;0;0;6;0;17671;2;0;0;0;0;0;7;0;18060;0;0;0;0;8;0;17415;0;0;0;0;9;0;8893;0;0;0;0
30.11.20;17:50:00;1;843;17884;0;2;0;11236;0;0;0;0;3;0;7234;0;0;0;0;4;0;7475;0;0;0;0;5;0;0;0;0;0;0;0;0;6;0;17671;2;0;0;0;0;0;7;0;18060;0;0;0;0;8;0;17415;0;0;0;0;9;0;8893;0;0;0;0
30.11.20;17:45:00;1;1727;17813;0;2;0;11236;0;0;0;0;3;0;7234;0;0;0;0;4;0;7475;0;0;0;0;5;0;0;0;0;0;0;0;0;6;0;17671;2;0;0;0;0;0;7;0;18060;0;0;0;0;8;0;17415;0;0;0;0;9;0;8893;0;0;0;0
30.11.20;17:40:00;1;2380;17677;0;2;0;11236;0;0;0;0;3;0;7234;0;0;0;0;4;0;7475;0;0;0;0;5;0;0;0;0;0;0;0;0;6;0;17671;2;0;0;0;0;0;7;0;18060;0;0;0;0;8;0;17415;0;0;0;0;9;0;8893;0;0;0;0
30.11.20;17:35:00;1;2341;17481;0;2;0;11236;0;0;0;0;3;0;7234;0;0;0;0;4;0;7475;0;0;0;0;5;0;0;0;0;0;0;0;0;6;0;17671;2;0;0;0;0;0;7;0;18060;0;0;0;0;8;0;17415;0;0;0;0;9;0;8893;0;0;0;0
30.11.20;17:30:00;1;1312;17267;0;2;0;11236;0;0;0;0;3;0;7234;0;0;0;0;4;0;7475;0;0;0;0;5;0;0;0;0;0;0;0;0;6;0;17671;2;0;0;0;0;0;7;0;18060;0;0;0;0;8;0;17415;0;0;0;0;9;0;8893;0;0;0;0
30.11.20;17:25:00;1;1172;17173;0;2;0;11236;0;0;0;0;3;0;7234;0;0;0;0;4;0;7475;0;0;0;0;5;0;0;0;0;0;0;0;0;6;0;17671;2;0;0;0;0;0;7;0;18060;0;0;0;0;8;0;17415;0;0;0;0;9;0;8893;0;0;0;0
30.11.20;17:20:00;1;1967;17076;0;2;0;11236;0;0;0;0;3;0;7234;0;0;0;0;4;0;7475;0;0;0;0;5;0;0;0;0;0;0;0;0;6;0;17671;2;0;0;0;0;0;7;0;18060;0;0;0;0;8;0;17415;0;0;0;0;9;0;8893;0;0;0;0
30.11.20;17:15:00;1;1536;16940;0;2;0;11236;0;0;0;0;3;0;7234;0;0;0;0;4;0;7475;0;0;0;0;5;0;0;0;0;0;0;0;0;6;0;17671;2;0;0;0;0;0;7;0;18060;0;0;0;0;8;0;17415;0;0;0;0;9;0;8893;0;0;0;0
30.11.20;17:10:00;1;1911;16817;0;2;0;11236;0;0;0;0;3;0;7234;0;0;0;0;4;0;7475;0;0;0;0;5;0;0;0;0;0;0;0;0;6;0;17671;2;0;0;0;0;0;7;0;18060;0;0;0;0;8;0;17415;0;0;0;0;9;0;8893;0;0;0;0
30.11.20;17:05:00;1;2002;16660;0;2;0;11236;0;0;0;0;3;0;7234;0;0;0;0;4;0;7475;0;0;0;0;5;0;0;0;0;0;0;0;0;6;0;17671;2;0;0;0;0;0;7;0;18060;0;0;0;0;8;0;17415;0;0;0;0;9;0;8893;0;0;0;0
30.11.20;17:00:00;1;1000;16536;0;2;0;11236;0;0;0;0;3;0;7234;0;0;0;0;4;0;7475;0;0;0;0;5;0;0;0;0;0;0;0;0;6;0;17671;2;0;0;0;0;0;7;0;18060;0;0;0;0;8;0;17415;0;0;0;0;9;0;8893;0;0;0;0
30.11.20;16:55:00;1;1027;16452;0;2;0;11236;0;0;0;0;3;0;7234;0;0;0;0;4;0;7475;0;0;0;0;5;0;0;0;0;0;0;0;0;6;0;17671;2;0;0;0;0;0;7;0;18060;0;0;0;0;8;0;17415;0;0;0;0;9;0;8893;0;0;0;0
30.11.20;16:50:00;1;1208;16366;0;2;0;11236;0;0;0;0;3;0;7234;0;0;0;0;4;0;7475;0;0;0;0;5;0;0;0;0;0;0;0;0;6;0;17671;2;0;0;0;0;0;7;0;18060;0;0;0;0;8;0;17415;0;0;0;0;9;0;8893;0;0;0;0
30.11.20;16:45:00;1;1362;16267;0;2;0;11236;0;0;150;6;3;0;7234;2;0;279;14;4;0;7475;0;0;0;0;5;0;0;0;0;0;0;0;0;6;0;17671;2;0;0;0;0;0;7;0;18060;0;0;0;0;8;0;17415;0;0;0;0;9;0;8893;0;0;0;0
30.11.20;16:40:00;1;1192;16155;0;2;0;11236;6;0;308;11;3;0;7234;6;0;352;14;4;0;7475;0;0;24;3;5;0;0;0;0;0;0;0;0;6;0;17671;1;0;0;0;0;0;7;0;18060;0;0;0;0;8;0;17415;0;0;0;0;9;0;8893;0;0;0;0
30.11.20;16:35:00;1;987;16065;0;2;0;11236;6;0;348;12;3;0;7234;6;1;402;14;4;0;7475;2;0;86;8;5;0;0;0;0;0;0;0;0;6;0;17671;2;2;0;44;66;7;7;0;18060;0;0;0;0;8;0;17415;0;0;0;0;9;0;8893;0;0;0;0
30.11.20;16:30:00;1;1075;15982;0;2;0;11236;6;0;380;12;3;0;7234;6;1;456;15;4;0;7475;1;0;129;9;5;0;0;0;0;0;0;0;0;6;0;17671;23;4;3;180;505;21;7;0;18060;0;0;244;13;8;0;17415;0;0;242;12;9;0;8893;2;0;285;10
30.11.20;16:25:00;1;811;15897;0;2;0;11236;6;0;399;13;3;0;7234;6;1;477;15;4;0;7475;1;0;170;9;5;0;0;0;0;0;0;0;0;6;0;17671;23;5;3;181;563;21;7;0;18060;6;0;355;17;8;0;17415;6;0;354;16;9;0;8893;6;0;362;11
30.11.20;16:20:00;1;548;15839;0;2;0;11236;6;4;405;13;3;0;7233;6;0;529;15;4;0;7475;1;0;197;9;5;0;0;0;0;0;0;0;0;6;0;17671;23;8;3;246;590;22;7;0;18060;6;2;399;17;8;0;17415;6;1;413;16;9;0;8893;6;0;423;11
30.11.20;16:15:00;1;416;15794;0;2;1;11236;6;6;412;14;3;2;7233;4;4;520;16;4;0;7475;3;0;204;10;5;0;0;0;0;0;0;0;0;6;0;17671;23;2;3;449;600;22;7;0;18060;6;3;425;18;8;0;17415;3;3;430;16;9;2;8893;6;3;454;11
30.11.20;16:10:00;1;1420;15737;0;2;3;11236;6;8;421;15;3;1;7233;6;7;533;16;4;0;7475;3;0;223;10;5;0;0;0;0;0;0;0;0;6;8;17671;8;12;11;562;544;23;7;4;18060;6;8;452;18;8;4;17415;6;8;453;17;9;1;8893;6;2;515;12
30.11.20;16:05:00;1;869;15669;0;2;37;11236;6;61;374;16;3;3;7233;6;8;541;16;4;6;7475;3;6;199;11;5;0;0;0;0;0;0;0;0;6;56;17670;4;36;19;459;209;24;7;3;18060;6;14;464;18;8;7;17414;6;14;466;18;9;0;8893;6;4;531;12
30.11.20;16:00:00;1;690;15604;0;2;60;11233;4;94;371;16;3;4;7233;6;10;547;17;4;8;7475;3;8;198;11;5;0;0;0;0;0;0;0;0;6;71;17665;4;46;23;460;209;24;7;37;18060;6;65;406;19;8;33;17414;6;57;388;18;9;0;8893;6;0;575;12
30.11.20;15:55:00;1;2294;15536;0;2;81;11228;4;114;378;17;3;6;7233;6;11;549;17;4;24;7474;3;25;198;11;5;0;0;0;0;0;0;0;0;6;84;17659;4;44;25;459;216;24;7;97;18057;4;136;402;20;8;50;17412;4;91;426;18;9;3;8893;3;7;543;12
30.11.20;15:50:00;1;2640;15347;0;2;261;11221;4;302;403;18;3;77;7232;6;109;480;18;4;53;7472;3;55;198;11;5;0;0;0;0;0;0;0;0;6;176;17652;4;81;106;461;468;24;7;317;18049;4;357;351;20;8;97;17407;4;125;394;19;9;6;8893;6;10;566;13
30.11.20;15:45:00;1;2297;15161;0;2;769;11201;4;832;407;19;3;317;7227;4;359;430;19;4;162;7468;3;168;201;11;5;0;0;0;0;0;0;0;0;6;421;17637;4;171;247;604;606;24;7;591;18024;4;641;397;21;8;141;17399;4;177;382;19;9;7;8892;6;11;572;13
30.11.20;15:40:00;1;2293;14973;0;2;1060;11136;4;1128;398;20;3;566;7200;4;618;450;19;4;239;7454;5;249;200;11;5;0;0;0;0;0;0;0;0;6;805;17599;4;397;424;618;590;24;7;922;17974;4;979;422;21;8;255;17387;4;287;361;20;9;8;8892;6;12;580;14
30.11.20;15:35:00;1;2257;14802;0;2;1191;11049;4;1265;400;21;3;644;7153;4;700;455;19;4;246;7434;5;257;200;12;5;0;0;0;0;0;0;0;0;6;990;17531;4;518;526;620;589;24;7;1098;17898;4;1164;466;22;8;481;17367;4;520;355;21;9;10;8891;6;14;586;14
30.11.20;15:30:00;1;2119;14629;0;2;1339;10949;4;1418;399;21;3;720;7100;4;779;451;20;4;266;7413;5;276;200;12;5;0;0;0;0;0;0;0;0;6;1161;17447;4;578;585;616;592;24;7;1319;17807;4;1388;471;22;8;786;17326;4;835;373;21;9;63;8890;6;89;527;15
30.11.20;15:25:00;1;2805;14441;0;2;1448;10838;4;1530;398;22;3;779;7040;4;841;459;20;4;291;7391;5;303;200;12;5;0;0;0;0;0;0;0;0;6;1304;17350;4;650;648;613;590;24;7;1543;17697;4;1627;498;23;8;1056;17262;4;1119;398;22;9;82;8886;4;110;476;16
30.11.20;15:20:00;1;2522;14224;0;2;1568;10717;4;1655;398;23;3;853;6975;4;917;454;20;4;333;7367;5;346;201;12;5;0;0;0;0;0;0;0;0;6;1468;17240;4;759;751;617;593;25;7;2036;17568;4;2144;499;23;8;1545;17173;4;1618;401;22;9;87;8879;4;111;388;16
30.11.20;15:15:00;1;2217;14041;0;2;1663;10587;4;1757;398;23;3;898;6904;4;964;454;21;4;344;7339;5;358;205;12;5;0;0;0;0;0;0;0;0;6;1615;17117;4;830;828;615;591;25;7;2500;17399;4;2619;495;23;8;1955;17045;4;2050;431;23;9;136;8872;4;165;356;17
30.11.20;15:10:00;1;2246;13859;0;2;1763;10448;4;1858;395;24;3;958;6829;4;1028;462;21;4;365;7310;5;380;207;12;5;0;0;0;0;0;0;0;0;6;1767;16981;4;893;883;616;596;25;7;2650;17190;4;2779;494;24;8;2293;16881;4;2405;442;23;9;397;8860;4;432;355;18
30.11.20;15:05:00;1;2332;13677;0;2;1848;10301;4;1948;396;24;3;999;6749;4;1070;458;21;4;410;7280;5;426;205;13;5;0;0;0;0;0;0;0;0;6;1913;16832;4;1003;983;615;591;25;7;2789;16969;4;2928;495;24;8;2529;16691;4;2655;460;23;9;737;8827;4;784;356;19
30.11.20;15:00:00;1;2325;13509;0;2;2001;10147;4;2111;415;25;3;1090;6666;4;1160;448;22;4;449;7246;5;468;220;13;5;0;0;0;0;0;0;0;0;6;2076;16672;4;1089;1071;615;592;25;7;2953;16737;4;3101;487;24;8;2787;16479;4;2928;474;24;9;1076;8765;4;1138;383;20
30.11.20;14:55:00;1;2467;13314;0;2;2141;9980;4;2261;420;25;3;1192;6575;4;1270;472;22;4;470;7208;5;490;224;13;5;0;0;0;0;0;0;0;0;6;2211;16498;4;1146;1127;614;588;25;7;3088;16490;4;3238;486;24;8;2954;16246;4;3095;475;24;9;1243;8676;4;1310;414;20
30.11.20;14:50:00;1;2844;13112;0;2;2239;9802;4;2362;421;26;3;1329;6475;4;1414;496;22;4;497;7169;5;517;220;13;5;0;0;0;0;0;0;0;0;6;2383;16312;4;1221;1194;612;593;25;7;3234;16233;4;3398;489;24;8;3116;16000;4;3267;476;24;9;1432;8571;4;1515;455;21
30.11.20;14:45:00;1;2907;12909;0;2;2306;9616;4;2433;423;26;3;1426;6365;4;1517;515;23;4;528;7128;5;550;223;13;5;0;0;0;0;0;0;0;0;6;2518;16113;4;1290;1264;610;591;25;7;3339;15964;4;3508;486;24;8;3284;15744;4;3444;484;24;9;1583;8454;4;1670;480;22
30.11.20;14:40:00;1;2479;12674;0;2;2397;9423;4;2529;429;26;3;1538;6246;4;1634;530;23;4;559;7083;5;582;232;13;5;0;0;0;0;0;0;0;0;6;2704;15901;4;1360;1334;611;591;25;7;3495;15686;4;3665;487;24;8;3448;15467;4;3619;490;24;9;1718;8321;4;1814;491;22
30.11.20;14:35:00;1;3036;12467;0;2;2486;9224;4;2618;420;26;3;1618;6119;4;1719;533;23;4;585;7037;5;610;219;14;5;0;0;0;0;0;0;0;0;6;2845;15676;4;1494;1461;611;592;25;7;3615;15395;4;3790;482;25;8;3575;15182;4;3749;480;24;9;1793;8178;4;1893;494;22
30.11.20;14:30:00;1;3789;12216;0;2;2524;9017;4;2659;416;26;3;1644;5984;4;1745;535;23;4;610;6988;5;636;235;14;5;0;0;0;0;0;0;0;0;6;2952;15439;4;1531;1501;612;593;25;7;3721;15094;4;3902;484;24;8;3681;14883;4;3855;479;24;9;1880;8029;4;1986;503;23
30.11.20;14:25:00;1;3555;11913;0;2;2623;8806;4;2760;421;26;3;1709;5847;4;1815;532;23;4;665;6938;5;693;230;14;5;0;0;0;0;0;0;0;0;6;3112;15192;4;1602;1556;607;593;25;7;3842;14784;4;4023;482;25;8;3796;14576;4;3983;480;24;9;2004;7872;4;2121;522;23
30.11.20;14:20:00;1;3518;11615;0;2;2692;8588;4;2837;416;26;3;1751;5704;4;1859;529;23;4;703;6882;5;732;222;14;5;0;0;0;0;0;0;0;0;6;3258;14931;4;1682;1630;606;591;25;7;3926;14463;4;4117;487;24;8;3888;14260;4;4076;478;24;9;2109;7705;4;2228;527;23
30.11.20;14:15:00;1;3533;11344;0;2;2714;8364;4;2857;410;26;3;1773;5559;4;1880;532;23;4;740;6824;5;770;234;14;5;0;0;0;0;0;0;0;0;6;3354;14659;4;1732;1672;606;587;25;7;4014;14140;4;4214;483;24;8;3974;13939;4;4157;472;24;9;2172;7531;4;2299;533;23
30.11.20;14:10:00;1;3244;11051;0;2;2746;8137;4;2890;409;25;3;1793;5411;4;1900;529;22;4;763;6761;5;795;222;14;5;0;0;0;0;0;0;0;0;6;3454;14378;4;1798;1738;607;588;25;7;4114;13802;4;4304;477;24;8;4065;13604;4;4258;476;24;9;2227;7348;4;2350;534;23
30.11.20;14:05:00;1;3262;10753;0;2;2797;7908;4;2946;418;25;3;1820;5261;4;1930;531;22;4;773;6698;5;805;227;14;5;0;0;0;0;0;0;0;0;6;3561;14089;4;1831;1775;606;588;24;7;4169;13459;4;4370;482;24;8;4132;13266;4;4325;475;23;9;2265;7162;4;2390;531;23
30.11.20;14:00:00;1;3974;10453;0;2;2824;7676;4;2970;411;24;3;1843;5110;4;1954;528;22;4;827;6633;5;861;211;14;5;0;0;0;0;0;0;0;0;6;3669;13792;4;1900;1842;605;588;24;7;4257;13112;4;4466;481;23;8;4203;12922;4;4403;477;23;9;2310;6974;4;2439;527;22
30.11.20;13:55:00;1;3414;10119;0;2;2863;7440;4;3014;413;24;3;1873;4956;4;1986;528;22;4;887;6565;5;924;204;15;5;0;0;0;0;0;0;0;0;6;3745;13486;4;1938;1876;608;587;24;7;4367;12757;4;4577;481;23;8;4306;12572;4;4513;474;22;9;2357;6782;4;2490;523;22
30.11.20;13:50:00;1;1054;9834;0;2;2905;7202;4;3060;417;23;3;1891;4800;4;2006;529;21;4;924;6491;5;962;208;15;5;0;0;0;0;0;0;0;0;6;3920;13172;4;2029;1961;611;588;24;7;4429;12393;4;4649;487;22;8;4398;12213;4;4607;474;22;9;2412;6585;4;2547;529;22